Tracking 19720 objects as of 26-Jun-2019
HD Live streaming from Space Station
objects crossing your sky now

FENGYUN 1C DEB

Track FENGYUN 1C DEB now!
10-day predictions


NORAD ID: 30320
Int'l Code: 1999-025AAH
Perigee: 848.3 km
Apogee: 973.3 km
Inclination: 99.4 °
Period: 103.1 minutes
Semi major axis: 7281 km
RCS: 0.0266 m2 (small)
Launch date: May 10, 1999
Source: People's Republic of China (PRC)
Launch site: Taiyaun Space Center, China (TSC)

Note: This is SATELLITE DEBRIS
aabbcc
Your satellite tracking list
Your tracking list is empty




NASA's NSSDC Master Catalog

Two Line Element Set (TLE):
1 30320U 99025AAH 19176.50770824  .00000255  00000-0  20932-3 0  9991
2 30320  99.3768 168.1821 0085777 250.5267 228.5631 13.97153112634193
Source of the keplerian elements: AFSPC